Regional Weather Roundup
Issued by NWS Pendleton, OR

Home | Current Version | Previous Version | Text Only | Print | Product List | Glossary On
Versions: 1 2 3 4 5 6 7 8 9 10 11 12 13 14 15 16 17 18 19 20 21 22 23 24 25 26 27 28 29 30 31 32 33 34 35 36 37 38 39 40 41 42 43 44 45 46 47 48 49 50
000
ASUS46 KPDT 170325
RWRPDT
PENDLETON REGIONAL WEATHER ROUNDUP
NATIONAL WEATHER SERVICE PENDLETON OREGON
800 PM PDT TUE SEP 16 2014

NOTE: FAIR INDICATES FEW OR NO CLOUDS BELOW 12,000 FEET WITH NO
SIGNIFICANT WEATHER AND/OR OBSTRUCTIONS TO VISIBILITY.

# INDICATES UNOFFICIAL STATION AND DATA

WAZ520-170410-
EAST SLOPES OF WASHINGTON CASCADES

CITY            SKY/WX      TMP DP  RH  WIND    PRES   REMARKS
#BUMPING DAM    N/A         67  N/A N/A S2      N/A
#CLE ELUM HS    N/A         66  50  56  W3      29.82R
#CLE ELUM 2NW   N/A         66  48  52  CALM    N/A
#CLE ELUM LAKE  N/A         66  46  48  CALM    29.73R
#CLIFFDEL 2NW   N/A         66  51  58  N2      N/A
#GLENWOOD       N/A         71  49  46  S3      29.78R
#MANASTASH CYN  N/A         62  44  52  CALM    29.86R
#NELSON         N/A         67  52  59  CALM    29.80S
#NELSON 3SW     N/A         60  49  67  CALM    29.96S
#NILE           N/A         71  52  51  CALM    29.05R
#RONALD 2NW     N/A         67  45  45  E1      29.77F
#TEANAWAY 4NE   N/A         66  53  63  CALM    N/A
#TROUT LAKE 1NE N/A         64  49  58  CALM    29.80R
$$

WAZ521-170410-
SIMCOE HIGHLANDS

CITY            SKY/WX      TMP DP  RH  WIND    PRES   REMARKS
#BICKLETON HS   N/A         64  26  23  CALM    29.94S
#CENTERVILLE 4W N/A         71  47  42  NW16    29.61F
#CENTERVILLE 1SWN/A         70  47  44  W3      29.75S
#GOLDENDALE     N/A         76  45  33  W8      N/A
#GOLDENDALE 1NE N/A         71  40  32  SW2     N/A
#GOLDENDALE 1S  N/A         70  48  46  CALM    29.80S
#GOODNOE HILLS  N/A         75  47  37  W8      29.73R
#LYLE 6NE       N/A         70  49  47  S5      29.74R
$$

WAZ026-170410-
KITTITAS VALLEY

CITY            SKY/WX      TMP DP  RH  WIND    PRES   REMARKS
ELLENSBURG AP   CLOUDY      72  50  46  NW16    29.81S
#ELLENSBURG CWU N/A         71  49  46  N12     29.70S
#ELLENSBURG 3NE N/A         69  52  55  N7      29.81S
#ELLENSBURG     N/A         74  51  44  NW7     N/A
#KITTITAS 3S    N/A         67  51  56  CALM    29.74R
#THORP 6N       N/A         68  49  51  NW12G25 29.76S
$$

WAZ027-170410-
YAKIMA VALLEY

CITY            SKY/WX      TMP DP  RH  WIND    PRES   REMARKS
SUNNYSIDE AP    N/A         63  55  75  N5      29.75S
YAKIMA AIRPORT  MOCLDY      66  50  56  W7      29.77S
YAKIMA-VAGABOND MOCLDY      72  35  26  N1      29.79S
#COWICHE 1N     N/A         72  49  44  NW3     29.97S
#DONALD 2NE     N/A         75  38  26  CALM    30.09R
#GRANDVIEW      N/A         69  49  49  CALM    29.74R
#MABTON         N/A         69  46  44  CALM    29.74S
#MOXEE 2E       N/A         65  34  31  S3      29.72R
#NACHES 2SW     N/A         67  50  54  W1      29.81S
#OUTLOOK DOT    N/A         N/A N/A N/A SE1     N/A
#SELAH 8E       N/A         65  31  28  SE5     N/A
#TERRACE HTS    N/A         71  43  36  CALM    29.69R
#TOPPENISH      N/A         71  55  57  CALM    29.65R
#WAPATO 4NE     N/A         75  38  26  CALM    30.09R
#WEST VALLEY    N/A         73  46  38  NW1     29.70S
#W YAKIMA       N/A         74  46  37  W3      29.72R
#WHITE SWAN 5E  N/A         67  51  56  CALM    29.72S
#WILEY CITY 3W  N/A         67  51  56  CALM    29.77S
$$

WAZ028-170410-
LOWER COLUMBIA BASIN...WASHINGTON

CITY            SKY/WX      TMP DP  RH  WIND    PRES   REMARKS
PASCO           MOCLDY      76  49  39  CALM    29.74S
PROSSER AWOS    N/A         66  54  65  N2      29.78R
RICHLAND AWOS   MOCLDY      77  45  32  CALM    29.73S
#BASIN CITY 5SW N/A         66  54  65  CALM    29.75R
#BENTON CITY    N/A         74  49  41  NW2     29.63R
#CONNELL 5N     N/A         73  42  33  CALM    29.72S
#CONNELL 5NW    N/A         72  45  38  CALM    29.69S
#ELTOPIA        N/A         71  50  47  CALM    29.69S
#ELTOPIA 6NW    N/A         73  49  43  S1      28.73S
#KENNEWICK 3S   N/A         76  42  30  S1      29.72S
#PATERSON       N/A         78  47  34  NE2     29.71R
#PROSSER        N/A         77  41  28  CALM    29.72R
#SAGEMOOR 2W    N/A         72  54  53  CALM    29.59S
#TOUCHET 2S     N/A         63  47  56  CALM    29.71R
#WEST PASCO     N/A         75  48  38  CALM    29.71S
$$

WAZ029-170410-
FOOTHILLS OF THE BLUES...WASHINGTON

CITY            SKY/WX      TMP DP  RH  WIND    PRES   REMARKS
WALLA WALLA AP  MOCLDY      74  40  29  SE6     29.79R
#DAYTON SCHOOL  N/A         68  34  28  CALM    29.80R
#LOWDEN 2SE     N/A         68  52  57  CALM    29.71R
#PLEASANT VIEW 1N/A         71  38  30  SW3     29.76R
#PRESCOTT       N/A         67  41  39  CALM    29.72R
#SUDBURY        N/A         67  N/A N/A CALM    N/A
#WHITMAN COLLEGEN/A         74  43  33  S3      29.77R
#WAITSBURG 8N   N/A         63  18  17  CALM    29.71R
#WALLA WALLA 5E N/A         67  32  27  W7      N/A
#WALLA WALLA U  N/A         79  47  32  CALM    29.71S
#WHITMAN MISSIONN/A         69  50  51  CALM    29.74R
$$

WAZ030-170410-
BLUE MOUNTAINS...WASHINGTON

CITY            SKY/WX      TMP DP  RH  WIND    PRES   REMARKS
$$

ORZ009-041-WAZ024-170410-
COLUMBIA RIVER GORGE

CITY            SKY/WX      TMP DP  RH  WIND    PRES   REMARKS
HOOD RIVER AP   CLOUDY      72  50  46  W3      29.82R
THE DALLES AP   CLOUDY      78  47  34  W14     29.77R
#ARLINGTON AIRPON/A         77  46  33  SW5     N/A
#ARLINGTON HS   N/A         80  44  28  NW3     29.63R
#MARYHILL 2W    N/A         77  47  35  W3      N/A
#MOSIER 1S      N/A         71  39  31  CALM    29.83S
#MURDOCK        N/A         77  52  42  NW15G24 29.77R
#RUFUS DOT      N/A         82  52  35  N12     N/A

$$

ORZ510-170410-
NORTH CENTRAL OREGON

CITY            SKY/WX      TMP DP  RH  WIND    PRES   REMARKS
#COW CYN RST AREN/A         71  42  35  N3      N/A
#DUFUR 9E       N/A         67  47  49  W6      29.80R
#GRASS VALLEY   N/A         68  44  42  W2      N/A
#GRASS VALLEY 1SN/A         68  46  45  CALM    29.79F
#KENT DOT       N/A         67  40  37  N5      N/A
#MAUPIN SCHOOL  N/A         77  49  37  N1      28.68R
#MORO SCHOOL    N/A         71  53  53  W13     29.85R
#SHANIKO 5WSW   N/A         68  37  32  N8      N/A
#SHANIKO 4NW    N/A         67  40  37  N8      29.92S
#TYGH VALLEY 2NEN/A         74  49  41  CALM    29.75R
#WAPANITIA AIRPON/A         72  45  38  CALM    29.78R
#WASCO DOT      N/A         72  48  43  W6      N/A
#WASCO AIRPORT  N/A         73  43  34  W14     N/A
#WASCO 5NE      N/A         71  47  42  W7      29.75R
$$

ORZ511-170410-
CENTRAL OREGON

CITY            SKY/WX      TMP DP  RH  WIND    PRES   REMARKS
BEND AIRPORT    MOCLDY      72  36  27  N7      29.93R
MADRAS AIRPORT  MOCLDY      72  43  35  N9      29.87R
REDMOND AIRPORT MOCLDY      73  38  28  NW7     29.89R
#BEND 6E        N/A         70  34  26  CALM    29.67F
#BEND 1SW       N/A         69  38  32  CALM    N/A
#BEND-AWBREY    N/A         72  41  33  CALM    29.74R
#BEND-KIM LN    N/A         69  42  37  CALM    29.89R
#CROOKED RVR RANN/A         73  44  35  E1      29.75R
#CULVER         N/A         69  44  40  CALM    29.84R
#LAKE BILLY CHINN/A         74   6   7  SE3     29.90R
#POWELL BUTTE   N/A         70  41  35  NW1     29.57R
#PRINEVILLE 3N  N/A         72  43  35  CALM    29.70R
#WARM SPRINGS   N/A         78  47  34  W5      29.80R


ORZ509-170410-
EAST SLOPES OF OREGON CASCADES

CITY            SKY/WX      TMP DP  RH  WIND    PRES   REMARKS
#BLUE BOX PASS  N/A         60   7  12  NW2     N/A
#BLACK BUTTE RNCN/A         70  45  41  CALM    29.80R
#CAMP SHERMAN   N/A         70  41  35  CALM    29.84R
#LA PINE DOT    N/A         68  37  32  NW2     N/A
#LA PINE 4NW    N/A         67  43  42  CALM    29.81R
#LAVA BUTTE DOT N/A         66  37  34  W7      N/A
#SISTERS AIRPOR N/A         71  49  46  N2      29.90R
#SISTERS ODOT   N/A         71  N/A N/A SW2     N/A
#SISTERS 1NW    N/A         72  38  29  NW8     N/A
#SISTERS 3N     N/A         69  37  31  CALM    N/A
#SUNRIVER       N/A         67  41  39  CALM    29.68R
#SUNRIVER AP    N/A         70  43  38  CALM    29.75R
#TUMALO 3W      N/A         70  40  34  CALM    29.63R
#WANOGA BUTTE D N/A         63  34  34  CALM    N/A

$$

ORZ044-170410-
LOWER COLUMBIA BASIN...OREGON

CITY            SKY/WX      TMP DP  RH  WIND    PRES   REMARKS
HERMISTON       MOCLDY      70  48  46  E3      29.75R
#BOARDMAN SCHOOLN/A         83  40  22  CALM    29.72S
#BOARDMAN 3W    N/A         69  46  44  SW1     29.44S
#BOARDMAN 8SW   N/A         79  44  29  SE3     29.72R
#ECHO 8SW       N/A         68  41  37  SW2     29.73R
#IONE SCHOOL    N/A         78  45  31  SW3     29.78R
#IRRIGON 4NW    N/A         75  49  40  NE1     N/A
#UMATILLA       N/A         77  45  32  CALM    29.72R
$$

ORZ507-170410-
NORTHERN FOOTHILLS OF THE BLUES

CITY            SKY/WX      TMP DP  RH  WIND    PRES   REMARKS
PENDLETON AIRPT PTCLDY      73  34  24  W3      29.79S
#ADAMS 3WNW     N/A         69  34  27  CALM    29.74R
#ATHENA         N/A         65  39  38  CALM    29.77R
#HELIX SCHOOL   N/A         68  35  29  CALM    29.74R
#HELIX 3N       N/A         68  38  33  CALM    29.80R
#HOLDMAN 5SE    N/A         68  35  29  CALM    29.80R
#HOLDMAN 6E     N/A         71  38  30  CALM    29.56R
#M-FREEWATER 5SEN/A         63  47  56  CALM    29.80R
#PENDLETON DNTN N/A         71  41  34  CALM    29.79S
#PDT AQUATIC CTRN/A         74  36  25  CALM    29.79S
#PDT SUNRIDGE   N/A         71  38  30  CALM    29.79R
#PENDLETON 7NW  N/A         70  40  34  CALM    31.14S
#PILOT ROCK     N/A         66  35  32  CALM    29.84R
#TUTUILLA       N/A         65  42  43  CALM    29.76R
#UMAPINE 2E     N/A         61  52  72  CALM    29.73R
#WESTON SCHOOL  N/A         70  33  25  CALM    29.78R

$$

ORZ508-170410-
SOUTHERN FOOTHILLS OF THE BLUES

CITY            SKY/WX      TMP DP  RH  WIND    PRES   REMARKS
#AJAX           N/A         72  39  30  N6      29.82R
#CONDON SCHOOL  N/A         70  45  41  CALM    29.85R
#CONDON 5W      N/A         67  41  39  NW9     29.87R
#FOSSIL SCHOOL  N/A         73  41  31  CALM    29.87R
#HEPPNER EOC    N/A         73  39  29  CALM    29.71R
#HEPPNER 4NE    N/A         62  36  38  E2      29.74R
#LEXINGTON 2SE  N/A         71  39  31  CALM    29.78R
#MIKKALO        N/A         74  41  30  W7      29.83S
#OLEX 4N        N/A         76  46  34  SW13    29.78R
#RUGGS 5NE      N/A         70  36  29  W6      30.07R
#RUGGS 2SW      N/A         68  39  35  W6      29.80R

$$

ORZ502-503-170410-
BLUE MOUNTAINS

CITY            SKY/WX      TMP DP  RH  WIND    PRES   REMARKS
MEACHAM         PTCLDY      60  34  37  CALM    29.93S
#BATTLE MTN DOT N/A         64  43  46  N2      N/A
#HARDMAN 10S    N/A         66  36  33  N2      30.01R
#HEPPNER 15SE   N/A         59  39  47  CALM    29.86R
#LADD CYN SMT   N/A         71  32  24  W8      N/A
#LADD CREEK ODOTN/A         75  43  32  S2      N/A
#N POWDER DOT   N/A         67  41  39  NE10    N/A
#PIKES PEAK     N/A         73  32  22  S1      27.99S
#TOLLGATE       N/A         60  33  36  CALM    29.93S
#TOLLGATE 9W    N/A         70  38  31  NW2     N/A
#TROY SCHOOL    N/A         72  45  38  W2      29.57R
#UKIAH          N/A         66  36  33  CALM    29.81R
#WESTON 4E      N/A         69  35  28  SE2     29.67R
$$

ORZ505-170410-
JOHN DAY BASIN

CITY            SKY/WX      TMP DP  RH  WIND    PRES   REMARKS
JOHN DAY        CLEAR       77  32  19  W9      29.90R
#MONUMENT HS    N/A         78  36  22  S1      29.84R
#MT. VERNON 5SE N/A         75  32  21  W1      29.86R
#WINLOCK        N/A         71  35  27  CALM    29.96R
$$

ORZ506-170410-
OCHOCO AND JOHN DAY HIGHLANDS

CITY            SKY/WX      TMP DP  RH  WIND    PRES   REMARKS
#BUCK CREEK DOT N/A         75  35  23  S2      N/A
#HORSE RIDGE DO N/A         69  33  26  NW2     N/A
#KEYES SMT DOT  N/A         69  31  24  SW2     N/A
#PAULINA SCHOOL N/A         75  26  16  NW7     29.88R
#PINE MTN OBS   N/A         62  33  34  NW8     N/A
#PRAIRIE CITY   N/A         64  42  45  CALM    29.75R
#SENECA 9NW     N/A         67  33  28  CALM    29.71R
$$

ORZ049-170410-
GRANDE RONDE VALLEY

CITY            SKY/WX      TMP DP  RH  WIND    PRES   REMARKS
LA GRANDE       PTCLDY      72  32  23  NW12    29.86R
#COVE           N/A         69  42  37  SW1     29.79R
#COVE SCHOOL    N/A         70  40  34  E1      29.84R
#COVE 6NW       N/A         71  37  29  W7      29.78R
#ELGIN 3N       N/A         71  27  19  CALM    29.60R
#ELGIN 1E       N/A         75  37  25  CALM    N/A
#IMBLER SCHOOL  N/A         72  37  28  N5      29.83R
#LADD CYN DOT   N/A         74  40  29  S1      N/A
#LA GRANDE ELEM N/A         76  35  22  W12     29.86R
#UNION 1S       N/A         72  39  30  N1      29.64R
$$

ORZ050-170410-
WALLOWA COUNTY

CITY            SKY/WX      TMP DP  RH  WIND    PRES   REMARKS
JOSEPH AIRPORT  PTCLDY      73  36  26  N6      29.93R
#ENTERPRISE AP  N/A         73  33  23  NW7     29.86R
#ENTERPRISE HS  N/A         74  42  32  NW2     29.90R
#IMNAHA SCHOOL  N/A         82  34  18  N1      29.72R
#IMNAHA 10S     N/A         77  43  30  SW5     29.82S
#JOSEPH 3N      N/A         66  42  42  NW7     29.94R
#JOSEPH 3W      N/A         70  36  29  W1      29.82R
#LOSTINE        N/A         69  42  37  CALM    29.54R
#MT HOWARD 8000 N/A         59  37  44  CALM    30.21S
#PROMISE 1S     N/A         71  40  32  CALM    29.83S
#SHEEP RDG 7000 N/A         62  33  34  CALM    29.69R
#WALLOWA SCHOOL N/A         72  43  35  CALM    30.63R



$$



USA.gov is the U.S. government's official web portal to all federal, state and local government web resources and services.